Location: Chuathbaluk
(61.5726°N, 159.2454°W)
Time: 03:05:07
(UTC+00:00)

SR - Pass Details

Date: 30 November 2020
Orbit: 575 x 880 km, 66.7° (Epoch: 23 January)

Event Time Altitude Azimuth Distance (km) Brightness Sun altitude
Rises 05:30:25 0° 207° (SSW) 2,855 ? -26.7°
Reaches altitude 10° 05:32:39 10° 201° (SSW) 1,987 ? -26.9°
Enters shadow 05:33:56 19° 194° (SSW) 1,521 ? -27.1°
